This demonstration page uses our WeatherBlox Daily Observations layout. Learn more.

38.88101, -77.10428

Hourly Observations for August 15, 2016

Temp ( °F °C ) Dew Point ( °F °C ) Humidity (%) Winds ( mph kmh ) Pressure ( in mb ) Visibility ( mi km ) Precip ( " mm )
12:52 am 00:52 Mostly Cloudy 80 26.7 71 21.7 74 74 Calm 30.12 1020 9 14.484096 0 0
1:52 am 01:52 Mostly Clear 81 27.2 70 21.1 69 69 WNW 6 9 30.12 1020 9 14.484096 0 0
2:52 am 02:52 Mostly Clear 79 26.1 71 21.7 77 77 N 7 11 30.12 1020 8 12.874752 0 0
3:52 am 03:52 Mostly Cloudy 79 26.1 71 21.7 77 77 NNW 7 11 30.12 1020 8 12.874752 0 0
4:52 am 04:52 Mostly Cloudy 79 26.1 70 21.1 74 74 NNW 7 11 30.15 1021 9 14.484096 0 0
5:52 am 05:52 Mostly Cloudy 78 25.6 70 21.1 76 76 N 5 7 30.15 1021 8 12.874752 0 0
6:52 am 06:52 Partly Cloudy 78 25.6 71 21.7 79 79 N 6 9 30.18 1022 9 14.484096 0 0
7:52 am 07:52 Partly Cloudy 82 27.8 70 21.1 67 67 N 5 7 30.18 1022 10 16.09344 0 0
8:52 am 08:52 Partly Cloudy 84 28.9 69 20.6 61 61 N 5 7 30.18 1022 10 16.09344 0 0
9:52 am 09:52 Partly Cloudy 88 31.1 69 20.6 54 54 N 6 9 30.18 1022 10 16.09344 0 0
10:52 am 10:52 Partly Cloudy 88 31.1 69 20.6 54 54 ENE 5 7 30.18 1022 10 16.09344 0 0
11:52 am 11:52 Partly Cloudy 91 32.8 69 20.6 49 49 NE 5 7 30.18 1022 10 16.09344 0 0
12:52 pm 12:52 Partly Cloudy 92 33.3 69 20.6 47 47 E 3 6 30.18 1022 10 16.09344 0 0
1:52 pm 13:52 Partly Cloudy 95 35 70 21.1 44 44 E 3 6 30.15 1021 10 16.09344 0 0
2:52 pm 14:52 Partly Cloudy 96 35.6 70 21.1 43 43 SSE 6 9 30.15 1021 10 16.09344 0 0
3:52 pm 15:52 Mostly Cloudy 98 36.7 69 20.6 39 39 S 9 15 30.12 1020 10 16.09344 0 0
4:52 pm 16:52 Mostly Cloudy 94 34.4 74 23.3 52 52 ESE 10 17 30.12 1020 10 16.09344 0 0
5:52 pm 17:52 Mostly Cloudy 92 33.3 75 23.9 58 58 SE 10 17 30.12 1020 10 16.09344 0 0
6:28 pm 18:28 Mostly Cloudy with Thunderstorms 84 28.9 69 20.6 61 61 N 28 44 30.15 1021 10 16.09344 0 0
6:37 pm 18:37 Mostly Cloudy with Thunderstorms 82 27.8 69 20.6 65 65 N 21 33 30.18 1022 10 16.09344 0 0
6:52 pm 18:52 Mostly Cloudy with Thunderstorms 82 27.8 70 21.1 67 67 NE 14 22 30.18 1022 10 16.09344 0 0
6:57 pm 18:57 Mostly Cloudy 81 27.2 72 22.2 74 74 NE 15 24 30.18 1022 10 16.09344 0 0
7:52 pm 19:52 Mostly Cloudy 79 26.1 71 21.7 77 77 NNE 12 19 30.15 1021 10 16.09344 0 0
8:09 pm 20:09 Mostly Cloudy with Thunderstorms 79 26.1 71 21.7 77 77 NNE 10 17 30.18 1022 10 16.09344 0 0
8:37 pm 20:37 Windy with Storms Likely 78 25.6 71 21.7 79 79 WSW 24 39 30.24 1024 3 4.828032 0.001 0.001
8:39 pm 20:39 Cloudy with Heavy Thunderstorms 76 24.4 72 22.2 88 88 WSW 25 41 30.24 1024 2 3.218688 0.03 0.762
8:41 pm 20:41 Cloudy with Heavy Thunderstorms 75 23.9 72 22.2 90 90 SW 24 39 30.27 1025 1.5 2.414016 0.07 1.778
8:44 pm 20:44 Cloudy with Heavy Thunderstorms 75 23.9 72 22.2 90 90 SW 28 44 30.27 1025 0.75 1.207008 0.16 4.064
8:46 pm 20:46 Cloudy with Heavy Thunderstorms 73 23 72 22 94 94 SW 22 35 30.27 1025 0.75 1.207008 0.27 6.858
8:52 pm 20:52 Cloudy with Heavy Thunderstorms 74 23.3 72 22.2 94 94 W 13 20 30.27 1025 0.75 1.207008 0.54 13.716
8:56 pm 20:56 Cloudy with Heavy Thunderstorms 73 22.8 71 21.7 94 94 W 13 20 30.27 1025 1.25 2.01168 0.08 2.032
9:10 pm 21:10 Cloudy with Heavy Thunderstorms 73 22.8 71 21.7 94 94 E 6 9 30.24 1024 1.25 2.01168 0.41 10.414
9:15 pm 21:15 Cloudy with Thunderstorms 74 23.3 71 21.7 91 91 ENE 6 9 30.24 1024 3 4.828032 0.43 10.922
9:22 pm 21:22 Cloudy with Light Rain 74 23.3 71 21.7 91 91 ESE 8 13 30.24 1024 8 12.874752 0.44 11.176
9:52 pm 21:52 Mostly Cloudy with Light Thunderstorms 74 23.3 71 21.7 91 91 SSE 7 11 30.24 1024 9 14.484096 0.47 11.938
10:10 pm 22:10 Mostly Cloudy with Thunderstorms 75 23.9 72 22.2 90 90 S 7 11 30.24 1024 6 9.656064 0.04 1.016
10:42 pm 22:42 Cloudy with Rain 75 23.9 74 23.3 96 96 S 5 7 30.24 1024 8 12.874752 0.12 3.048
10:52 pm 22:52 Cloudy with Light Rain 76 24.4 74 23.3 94 94 S 8 13 30.24 1024 10 16.09344 0.13 3.302
11:52 pm 23:52 Cloudy with Light Rain 76 24.4 73 22.8 91 91 SSW 7 11 30.21 1023 10 16.09344 0.02 0.508

Powered by AerisWeather